Total_Precipitation_Accumulation
0.61 0.65 0.65 0.61 0.57 0.59 0.70 0.81 1.21 1.64 2.16 2.59 2.75 2.74 2.80 2.66 2.45 2.08 1.98 2.08 2.05 1.98 1.98 1.87 1.83 2.00 2.08 2.02 1.92 2.18 2.24 2.14 1.97 1.78 1.76 1.79 1.76 1.69 1.62 1.57 1.48 1.55 1.61 1.55
0.64 0.54 0.63 0.67 0.69 0.77 0.87 0.94 1.16 1.69 2.42 2.73 2.82 2.78 2.81 2.71 2.54 2.44 2.32 2.24 2.22 2.21 2.19 2.11 1.99 2.05 2.19 2.12 1.99 2.16 2.20 2.24 2.24 2.14 2.10 1.99 1.80 1.70 1.70 1.68 1.62 1.57 1.55 1.47
1.02 0.67 0.90 1.34 1.02 0.97 1.13 1.22 1.47 2.09 2.45 2.38 2.49 2.67 2.88 2.96 2.83 2.71 2.67 2.53 2.51 2.54 2.47 2.45 2.42 2.35 2.35 2.23 2.10 2.13 2.25 2.34 2.30 2.22 2.15 2.08 1.84 1.72 1.77 1.76 1.73 1.66 1.54 1.49
1.22 1.31 2.02 1.84 1.11 1.07 1.29 1.50 1.70 1.97 2.08 2.12 2.16 2.28 2.43 2.58 2.70 2.67 2.59 2.52 2.56 2.70 2.68 2.65 2.55 2.49 2.39 2.30 2.32 2.36 2.37 2.36 2.27 2.12 2.09 2.02 1.93 1.87 1.83 1.76 1.72 1.68 1.59 1.48
1.42 1.79 2.03 1.86 1.21 1.23 1.69 2.25 1.89 1.89 1.78 1.62 1.61 1.89 2.37 2.45 2.46 2.62 2.64 2.60 2.57 2.58 2.58 2.61 2.53 2.45 2.38 2.34 2.35 2.38 2.36 2.22 2.11 2.02 2.03 1.91 1.90 1.85 1.79 1.71 1.64 1.57 1.50 1.43
1.54 2.13 2.51 2.27 1.24 1.03 1.59 2.83 2.16 1.88 1.80 1.67 1.78 2.30 2.50 2.33 2.33 2.31 2.31 2.38 2.30 2.14 2.08 2.27 2.41 2.39 2.29 2.23 2.21 2.18 2.02 1.84 1.73 1.78 1.85 1.70 1.61 1.57 1.56 1.57 1.55 1.46 1.36 1.35
1.70 2.26 2.49 1.51 0.92 1.12 2.41 2.99 2.27 1.89 1.78 1.75 2.02 2.24 1.97 1.79 1.91 1.96 1.94 1.87 1.83 1.78 1.83 1.96 2.03 2.08 2.11 2.03 2.06 1.95 1.78 1.69 1.69 1.64 1.63 1.58 1.56 1.57 1.49 1.42 1.45 1.45 1.43 1.36
1.83 2.43 2.58 1.29 1.09 1.77 2.20 1.80 1.72 1.69 1.63 1.60 1.57 1.45 1.45 1.48 1.48 1.50 1.53 1.52 1.48 1.59 1.69 1.76 1.70 1.66 1.79 1.83 1.82 1.71 1.64 1.58 1.64 1.60 1.47 1.55 1.70 1.64 1.58 1.57 1.54 1.48 1.44 1.33
1.92 2.33 1.99 1.32 1.30 1.45 1.48 1.44 1.34 1.34 1.31 1.26 1.25 1.07 1.14 1.28 1.20 1.17 1.19 1.26 1.33 1.38 1.51 1.65 1.64 1.63 1.67 1.67 1.58 1.57 1.64 1.61 1.53 1.44 1.52 1.59 1.71 1.66 1.57 1.54 1.42 1.30 1.25 1.17
1.61 1.69 1.46 1.28 1.24 1.20 1.10 1.08 1.00 1.07 1.21 1.19 1.16 1.15 1.18 1.19 1.15 1.08 1.12 1.14 1.21 1.27 1.32 1.47 1.47 1.48 1.56 1.50 1.48 1.59 1.69 1.64 1.51 1.40 1.38 1.44 1.50 1.52 1.44 1.36 1.28 1.18 1.12 1.05
1.62 1.57 1.46 1.39 1.16 1.09 1.02 0.94 0.90 0.97 1.07 1.14 1.16 1.18 1.17 1.14 1.14 1.16 1.25 1.26 1.26 1.29 1.28 1.27 1.28 1.32 1.31 1.32 1.43 1.61 1.57 1.43 1.32 1.20 1.17 1.22 1.22 1.21 1.20 1.10 1.05 1.04 0.96 0.89
1.65 1.44 1.47 1.48 1.17 1.02 1.03 0.97 0.97 0.99 1.09 1.21 1.24 1.31 1.25 1.16 1.13 1.15 1.21 1.22 1.28 1.25 1.15 1.16 1.23 1.27 1.19 1.11 1.24 1.49 1.46 1.22 1.06 0.99 0.98 0.91 0.89 0.90 0.89 0.87 0.86 0.82 0.82 0.78
1.19 1.09 1.05 0.96 0.85 0.85 0.87 0.84 0.87 0.92 1.04 1.17 1.18 1.18 1.13 1.16 1.14 1.18 1.22 1.19 1.18 1.17 1.11 1.04 1.09 1.14 1.13 1.05 1.06 1.17 1.25 1.06 0.88 0.83 0.85 0.82 0.82 0.92 0.95 0.81 0.76 0.73 0.74 0.71
0.92 0.93 0.96 0.92 0.92 0.84 0.82 0.82 0.88 0.90 0.93 0.98 1.05 1.06 1.04 1.07 1.11 1.13 1.15 1.10 0.97 0.92 0.99 1.00 1.00 0.94 0.86 0.82 0.92 0.97 0.94 0.86 0.79 0.79 0.77 0.71 0.70 0.79 0.90 0.97 0.94 0.82 0.75 0.75
0.85 0.87 0.98 0.95 0.90 0.81 0.82 0.88 1.01 1.05 1.01 0.98 0.90 0.92 0.93 0.94 0.98 1.00 0.97 0.92 0.92 0.94 0.94 0.92 0.92 0.90 0.74 0.67 0.74 0.77 0.76 0.75 0.76 0.75 0.69 0.62 0.60 0.63 0.66 0.75 0.88 0.92 0.86 0.85
0.85 0.82 0.88 0.89 0.92 0.89 0.89 0.98 1.12 1.13 1.00 1.00 1.00 1.03 0.97 0.94 0.89 0.90 0.91 0.92 0.94 0.95 0.92 0.93 0.92 0.82 0.70 0.68 0.72 0.73 0.67 0.66 0.70 0.68 0.66 0.67 0.63 0.62 0.65 0.71 0.80 0.86 0.88 0.87
0.96 1.01 0.97 0.92 0.88 0.89 0.88 0.85 0.93 1.03 0.96 0.92 0.93 0.96 0.93 0.93 0.93 0.97 1.05 1.02 0.96 0.92 0.90 0.91 0.86 0.72 0.65 0.64 0.68 0.67 0.60 0.61 0.63 0.60 0.60 0.62 0.65 0.70 0.74 0.77 0.81 0.90 0.93 0.94
0.99 1.00 0.93 0.89 0.87 0.82 0.79 0.73 0.69 0.80 0.89 0.88 0.87 0.86 0.88 0.91 0.96 1.01 1.05 0.93 0.85 0.87 0.83 0.78 0.75 0.69 0.63 0.61 0.69 0.70 0.75 0.72 0.65 0.62 0.60 0.60 0.61 0.69 0.82 0.92 0.96 0.98 0.99 0.96
0.85 0.82 0.79 0.78 0.82 0.81 0.73 0.68 0.62 0.63 0.72 0.80 0.80 0.83 0.88 0.92 0.94 0.98 0.96 0.84 0.83 0.88 0.82 0.73 0.70 0.63 0.64 0.63 0.66 0.72 0.77 0.74 0.72 0.71 0.63 0.62 0.61 0.64 0.75 0.84 0.90 0.98 0.99 0.94
0.74 0.72 0.73 0.75 0.76 0.74 0.71 0.64 0.56 0.55 0.61 0.75 0.78 0.82 0.84 0.86 0.91 0.91 0.89 0.86 0.84 0.82 0.75 0.67 0.60 0.57 0.64 0.66 0.66 0.71 0.78 0.76 0.78 0.82 0.74 0.68 0.66 0.66 0.70 0.73 0.74 0.81 0.89 0.88
0.69 0.67 0.69 0.69 0.72 0.71 0.65 0.57 0.53 0.54 0.57 0.70 0.78 0.82 0.80 0.79 0.81 0.83 0.87 0.88 0.81 0.71 0.64 0.62 0.56 0.55 0.58 0.62 0.65 0.66 0.74 0.80 0.83 0.83 0.82 0.79 0.73 0.69 0.70 0.70 0.71 0.77 0.84 0.83
0.71 0.69 0.67 0.63 0.65 0.71 0.65 0.52 0.50 0.53 0.59 0.67 0.70 0.72 0.77 0.79 0.79 0.83 0.85 0.91 0.86 0.76 0.60 0.54 0.51 0.54 0.55 0.54 0.51 0.51 0.53 0.63 0.76 0.79 0.81 0.80 0.76 0.72 0.73 0.72 0.72 0.73 0.74 0.75
0.71 0.70 0.72 0.72 0.76 0.79 0.69 0.55 0.53 0.54 0.57 0.63 0.68 0.78 0.86 0.86 0.78 0.80 0.85 0.80 0.79 0.76 0.63 0.57 0.57 0.53 0.47 0.41 0.40 0.42 0.44 0.49 0.54 0.60 0.65 0.68 0.70 0.68 0.66 0.69 0.71 0.70 0.66 0.68
0.76 0.71 0.70 0.76 0.82 0.79 0.75 0.68 0.61 0.56 0.55 0.58 0.68 0.81 0.86 0.80 0.70 0.67 0.74 0.75 0.74 0.69 0.65 0.65 0.59 0.49 0.42 0.38 0.40 0.41 0.43 0.46 0.50 0.53 0.54 0.54 0.59 0.61 0.62 0.64 0.67 0.66 0.65 0.65
0.73 0.73 0.71 0.78 0.85 0.79 0.74 0.67 0.60 0.58 0.60 0.64 0.68 0.74 0.71 0.66 0.65 0.59 0.54 0.54 0.57 0.55 0.56 0.57 0.54 0.49 0.42 0.41 0.43 0.44 0.45 0.47 0.50 0.51 0.52 0.53 0.53 0.56 0.61 0.66 0.71 0.71 0.69 0.69
0.83 0.90 0.90 0.88 0.85 0.77 0.69 0.62 0.63 0.67 0.71 0.73 0.73 0.70 0.62 0.58 0.58 0.56 0.48 0.44 0.46 0.47 0.45 0.45 0.45 0.45 0.45 0.47 0.49 0.49 0.49 0.49 0.49 0.48 0.49 0.53 0.57 0.61 0.64 0.72 0.74 0.76 0.73 0.65
0.91 0.91 0.92 0.89 0.80 0.72 0.70 0.67 0.68 0.71 0.76 0.78 0.78 0.69 0.62 0.57 0.56 0.54 0.47 0.43 0.43 0.44 0.42 0.41 0.40 0.42 0.44 0.45 0.47 0.45 0.44 0.48 0.54 0.57 0.57 0.58 0.61 0.66 0.70 0.72 0.73 0.75 0.72 0.66